AAA136 YBCS-YBSU

Flight info

Callsign AAA136
Flight time N/A
Altitude 29000
Route AKROM1/15 AKROM Y177 RUROX/N0351F190 W727 SUSGI W534 SEBVA
Aircraft F28/M-SDFIRWY/H

Departure

Time 2026-04-27 09:30
Airport Cairns International Airport (YBCS)

Arrival

Time N/A
Airport Sunshine Coast Airport (YBSU)
Time Latitude Longitude Altitude Speed Heading
2026-04-27 08:40 -16.87477 145.75156 14 ft 0 kts 65°
2026-04-27 09:21 -16.87478 145.75156 14 ft 2 kts 65°
2026-04-27 09:21 -16.87485 145.75140 15 ft 2 kts 66°
2026-04-27 09:22 -16.87491 145.75124 14 ft 2 kts 68°
2026-04-27 09:22 -16.87497 145.75108 14 ft 2 kts 64°
2026-04-27 09:22 -16.87507 145.75095 16 ft 2 kts 27°
2026-04-27 09:22 -16.87523 145.75090 14 ft 2 kts
2026-04-27 09:23 -16.87532 145.75090 14 ft 0 kts 349°
2026-04-27 09:26 -16.87504 145.75076 14 ft 10 kts 335°
2026-04-27 09:26 -16.87429 145.75040 14 ft 12 kts 336°
2026-04-27 09:27 -16.87352 145.75006 14 ft 11 kts 335°
2026-04-27 09:27 -16.87317 145.74957 14 ft 8 kts 291°
2026-04-27 09:27 -16.87273 145.74865 14 ft 15 kts 324°
2026-04-27 09:27 -16.87172 145.74819 17 ft 16 kts 336°
2026-04-27 09:28 -16.87069 145.74768 14 ft 16 kts 327°
2026-04-27 09:28 -16.87052 145.74702 14 ft 0 kts 244°
2026-04-27 09:28 -16.87052 145.74701 14 ft 0 kts 244°
2026-04-27 09:29 -16.87069 145.74663 13 ft 8 kts 244°
2026-04-27 09:29 -16.87099 145.74603 11 ft 1 kts 218°
2026-04-27 09:30 -16.87193 145.74634 14 ft 35 kts 154°
2026-04-27 09:30 -16.87674 145.74851 16 ft 116 kts 156°
2026-04-27 09:30 -16.88616 145.75296 228 ft 176 kts 155°
2026-04-27 09:30 -16.89784 145.75841 1011 ft 187 kts 156°
2026-04-27 09:31 -16.90973 145.76459 1677 ft 196 kts 152°
2026-04-27 09:31 -16.92147 145.77235 2293 ft 204 kts 142°
2026-04-27 09:31 -16.93315 145.78099 2970 ft 207 kts 149°
2026-04-27 09:31 -16.94564 145.78846 3682 ft 207 kts 151°
2026-04-27 09:32 -16.95828 145.79560 4362 ft 206 kts 151°
2026-04-27 09:32 -16.97092 145.80265 5018 ft 206 kts 151°
2026-04-27 09:32 -16.98364 145.80972 5638 ft 208 kts 151°
2026-04-27 09:32 -16.99644 145.81686 6264 ft 209 kts 150°
2026-04-27 09:33 -17.00929 145.82408 6851 ft 210 kts 149°
2026-04-27 09:33 -17.02037 145.83397 7410 ft 211 kts 126°
2026-04-27 09:33 -17.02560 145.84826 7962 ft 216 kts 96°
2026-04-27 09:33 -17.02305 145.86372 8544 ft 219 kts 70°
2026-04-27 09:34 -17.01621 145.87794 9144 ft 220 kts 62°
2026-04-27 09:34 -17.00924 145.89208 9729 ft 218 kts 68°
2026-04-27 09:34 -17.00279 145.90641 10249 ft 219 kts 62°
2026-04-27 09:34 -16.99515 145.92032 10736 ft 222 kts 64°
2026-04-27 09:35 -16.98731 145.93433 11195 ft 225 kts 58°
2026-04-27 09:35 -16.97897 145.94834 11651 ft 230 kts 51°